FW4563 Weather Reports


time (UTC)temp
C
wind
direction
speed
KPH
gust
KPH
rain 1hr
cm
rain 24hr
cm
rain mn
cm
humidity
%
barometer
mb
20220629035221 23 308 0.0 1.6 0.00 0.00 0.00 63 1023.8
20220629034720 23 306 0.0 0.0 0.00 0.00 0.00 62 1023.9
20220629034219 23 308 0.0 0.0 0.00 0.00 0.00 61 1023.7
20220629033717 23 323 0.0 0.0 0.00 0.00 0.00 60 1024.0
20220629033217 24 343 0.0 0.0 0.00 0.00 0.00 59 1023.9
20220629032716 24 42 0.0 1.6 0.00 0.00 0.00 59 1023.7
20220629032215 24 12 0.0 0.0 0.00 0.00 0.00 57 1023.9
20220629031714 24 336 0.0 0.0 0.00 0.00 0.00 57 1023.6
20220629031213 24 282 0.0 0.0 0.00 0.00 0.00 58 1023.8
20220629030711 24 28 0.0 1.6 0.00 0.00 0.00 56 1023.6
20220629030210 24 352 0.0 0.0 0.00 0.00 0.00 58 1023.7
20220629025709 24 347 0.0 0.0 0.00 0.00 0.00 58 1023.7
20220629025207 25 355 0.0 1.6 0.00 0.00 0.00 57 1023.7
20220629024705 25 35 1.6 1.6 0.00 0.00 0.00 56 1023.6
20220629024205 24 353 0.0 0.0 0.00 0.00 0.00 57 1023.7
20220629023705 24 100 1.6 3.2 0.00 0.00 0.00 57 1023.7
20220629023206 24 336 0.0 1.6 0.00 0.00 0.00 58 1023.5
20220629022704 24 354 0.0 0.0 0.00 0.00 0.00 58 1023.5
20220629022205 25 20 0.0 0.0 0.00 0.00 0.00 57 1023.5
20220629021703 25 182 0.0 0.0 0.00 0.00 0.00 56 1023.4
20220629021202 25 344 0.0 0.0 0.00 0.00 0.00 55 1023.4
20220629020702 25 18 0.0 0.0 0.00 0.00 0.00 55 1023.3
20220629020203 25 343 0.0 0.0 0.00 0.00 0.00 55 1023.2
20220629015701 25 342 0.0 0.0 0.00 0.00 0.00 55 1023.4
20220629015200 25 341 0.0 0.0 0.00 0.00 0.00 54 1023.2
20220629014700 25 346 0.0 0.0 0.00 0.00 0.00 54 1023.3
20220629014158 25 333 0.0 0.0 0.00 0.00 0.00 54 1023.0
20220629013657 25 345 0.0 0.0 0.00 0.00 0.00 54 1023.1
20220629013156 25 10 0.0 1.6 0.00 0.00 0.00 53 1023.0
20220629012655 25 70 0.0 1.6 0.00 0.00 0.00 52 1023.0
20220629012154 25 331 0.0 1.6 0.00 0.00 0.00 52 1022.9
20220629011655 25 332 0.0 0.0 0.00 0.00 0.00 53 1023.0
20220629011154 25 0 0.0 0.0 0.00 0.00 0.00 53 1022.9
20220629010652 25 3 0.0 0.0 0.00 0.00 0.00 53 1023.3
20220629010151 25 299 0.0 0.0 0.00 0.00 0.00 53 1023.1
20220629005651 26 348 0.0 0.0 0.00 0.00 0.00 52 1023.1
20220629005150 26 356 0.0 0.0 0.00 0.00 0.00 52 1023.1
20220629004649 26 110 0.0 1.6 0.00 0.00 0.00 51 1023.0
20220629004148 26 36 0.0 1.6 0.00 0.00 0.00 51 1022.7
20220629003647 26 10 0.0 0.0 0.00 0.00 0.00 52 1022.9
20220629003145 26 13 0.0 0.0 0.00 0.00 0.00 51 1022.7
20220629002644 26 32 1.6 1.6 0.00 0.00 0.00 50 1022.9
20220629002143 27 350 0.0 1.6 0.00 0.00 0.00 49 1022.7
20220629001641 27 26 1.6 1.6 0.00 0.00 0.00 48 1022.8
20220629001141 27 61 1.6 1.6 0.00 0.00 0.00 48 1022.8
20220629000640 27 289 0.0 0.0 0.00 0.00 0.00 49 1022.8
20220629000139 27 336 0.0 0.0 0.00 0.00 0.00 49 1022.6
20220628235637 27 341 0.0 0.0 0.00 0.00 0.00 49 1022.7
20220628235137 27 339 0.0 0.0 0.00 0.00 0.00 48 1022.6
20220628234635 28 284 1.6 1.6 0.00 0.00 0.00 47 1022.5
20220628234135 28 348 0.0 0.0 0.00 0.00 0.00 46 1022.4
20220628233633 28 348 0.0 1.6 0.00 0.00 0.00 46 1022.6
20220628233133 28 358 0.0 0.0 0.00 0.00 0.00 45 1022.3
20220628232631 28 177 1.6 1.6 0.00 0.00 0.00 44 1022.5
20220628232131 28 219 3.2 3.2 0.00 0.00 0.00 45 1022.5
20220628231631 28 7 0.0 0.0 0.00 0.00 0.00 44 1022.4
20220628231131 28 32 0.0 0.0 0.00 0.00 0.00 45 1022.4
20220628230629 28 17 1.6 1.6 0.00 0.00 0.00 45 1022.2
20220628230129 28 296 0.0 0.0 0.00 0.00 0.00 43 1022.4
20220628225628 28 299 0.0 0.0 0.00 0.00 0.00 42 1022.4
20220628225128 30 323 1.6 1.6 0.00 0.00 0.00 42 1022.2
20220628224626 30 315 0.0 0.0 0.00 0.00 0.00 44 1022.4
20220628224126 30 320 1.6 1.6 0.00 0.00 0.00 44 1022.4
20220628223625 30 343 0.0 0.0 0.00 0.00 0.00 42 1022.2
20220628223125 30 356 0.0 0.0 0.00 0.00 0.00 41 1022.2
20220628222625 30 359 0.0 0.0 0.00 0.00 0.00 42 1022.2
20220628222124 28 257 1.6 1.6 0.00 0.00 0.00 44 1022.2
20220628221622 30 5 0.0 0.0 0.00 0.00 0.00 41 1022.0
20220628221121 29 74 0.0 0.0 0.00 0.00 0.00 42 1022.2
20220628220619 28 93 0.0 1.6 0.00 0.00 0.00 43 1022.2
20220628220119 29 26 0.0 1.6 0.00 0.00 0.00 42 1022.4
20220628215618 30 353 0.0 1.6 0.00 0.00 0.00 40 1022.3
20220628215118 31 297 3.2 3.2 0.00 0.00 0.00 40 1022.1
20220628214617 32 313 1.6 1.6 0.00 0.00 0.00 36 1022.4
20220628214116 31 356 0.0 1.6 0.00 0.00 0.00 37 1022.4
20220628213614 30 56 3.2 3.2 0.00 0.00 0.00 41 1022.4
20220628213113 30 32 3.2 3.2 0.00 0.00 0.00 41 1022.5
20220628212609 31 59 3.2 4.8 0.00 0.00 0.00 38 1022.4
20220628212108 31 50 1.6 3.2 0.00 0.00 0.00 38 1022.3
20220628211607 31 338 0.0 1.6 0.00 0.00 0.00 39 1022.6
20220628211106 31 25 0.0 1.6 0.00 0.00 0.00 38 1022.6
20220628210605 30 348 1.6 3.2 0.00 0.00 0.00 40 1022.6
20220628210103 31 4 1.6 1.6 0.00 0.00 0.00 40 1022.5
20220628205603 30 27 0.0 1.6 0.00 0.00 0.00 39 1022.3
20220628205102 30 324 1.6 3.2 0.00 0.00 0.00 39 1022.5
20220628204600 29 275 3.2 3.2 0.00 0.00 0.00 40 1022.3
20220628204059 31 23 3.2 4.8 0.00 0.00 0.00 39 1022.6
20220628203558 30 278 1.6 1.6 0.00 0.00 0.00 39 1022.5
20220628203056 30 61 3.2 8.0 0.00 0.00 0.00 39 1022.7
20220628202556 30 359 3.2 3.2 0.00 0.00 0.00 39 1022.3
20220628202055 31 68 1.6 3.2 0.00 0.00 0.00 41 1022.5
20220628201555 30 290 1.6 3.2 0.00 0.00 0.00 41 1023.0
20220628201054 30 216 1.6 1.6 0.00 0.00 0.00 41 1022.9
20220628200553 30 338 1.6 1.6 0.00 0.00 0.00 40 1022.7
20220628200052 30 305 1.6 1.6 0.00 0.00 0.00 40 1022.9
20220628195551 30 333 0.0 0.0 0.00 0.00 0.00 39 1023.0
20220628195047 29 276 1.6 1.6 0.00 0.00 0.00 41 1023.1
20220628194546 30 334 1.6 3.2 0.00 0.00 0.00 40 1023.1
20220628194045 30 198 3.2 3.2 0.00 0.00 0.00 39 1022.9
20220628193544 30 303 3.2 3.2 0.00 0.00 0.00 39 1023.1
20220628193043 30 113 1.6 1.6 0.00 0.00 0.00 40 1023.1
20220628192543 29 345 1.6 1.6 0.00 0.00 0.00 42 1023.0
20220628192042 29 0 1.6 1.6 0.00 0.00 0.00 41 1022.8
20220628191541 30 298 3.2 3.2 0.00 0.00 0.00 40 1023.1
20220628191040 30 56 1.6 1.6 0.00 0.00 0.00 38 1023.1
20220628190539 30 333 0.0 1.6 0.00 0.00 0.00 39 1023.1
20220628190038 29 134 3.2 4.8 0.00 0.00 0.00 41 1023.2
20220628185537 30 85 0.0 1.6 0.00 0.00 0.00 39 1023.4
20220628185036 28 330 0.0 0.0 0.00 0.00 0.00 40 1023.6
20220628184535 28 318 1.6 1.6 0.00 0.00 0.00 41 1023.7
20220628184034 28 37 1.6 1.6 0.00 0.00 0.00 42 1023.5
20220628183533 28 250 4.8 4.8 0.00 0.00 0.00 41 1023.6
20220628183033 28 217 4.8 4.8 0.00 0.00 0.00 41 1023.9
20220628182532 29 112 1.6 1.6 0.00 0.00 0.00 40 1023.6
20220628182030 28 38 1.6 1.6 0.00 0.00 0.00 41 1023.8
20220628181529 28 110 3.2 3.2 0.00 0.00 0.00 43 1023.7
20220628181028 28 78 1.6 3.2 0.00 0.00 0.00 43 1023.9
20220628180528 27 314 3.2 3.2 0.00 0.00 0.00 43 1023.9
20220628180028 28 245 1.6 3.2 0.00 0.00 0.00 42 1023.9
20220628175527 27 10 0.0 0.0 0.00 0.00 0.00 42 1023.9
20220628175026 27 50 6.4 11.3 0.00 0.00 0.00 41 1024.0
20220628174525 27 41 4.8 4.8 0.00 0.00 0.00 41 1023.9
20220628174024 27 345 3.2 3.2 0.00 0.00 0.00 43 1024.0
20220628173523 28 90 8.0 9.7 0.00 0.00 0.00 41 1024.1
20220628173023 28 125 1.6 1.6 0.00 0.00 0.00 41 1023.9
20220628172522 28 97 0.0 0.0 0.00 0.00 0.00 43 1024.0
20220628172021 28 3 0.0 1.6 0.00 0.00 0.00 43 1024.1
20220628171521 27 140 4.8 4.8 0.00 0.00 0.00 43 1024.4
20220628171021 28 356 0.0 1.6 0.00 0.00 0.00 42 1024.4
20220628170519 27 344 1.6 3.2 0.00 0.00 0.00 42 1024.4
20220628170017 28 352 1.6 3.2 0.00 0.00 0.00 39 1024.4
20220628165516 27 322 0.0 1.6 0.00 0.00 0.00 41 1024.4
20220628165016 28 194 1.6 3.2 0.00 0.00 0.00 41 1024.4
20220628164515 28 3 1.6 1.6 0.00 0.00 0.00 42 1024.3
20220628164014 28 9 4.8 8.0 0.00 0.00 0.00 42 1024.0
20220628163513 27 263 1.6 1.6 0.00 0.00 0.00 42 1024.0
20220628163012 28 326 3.2 3.2 0.00 0.00 0.00 44 1024.0
20220628162512 27 25 1.6 1.6 0.00 0.00 0.00 40 1024.1
20220628162011 28 174 1.6 1.6 0.00 0.00 0.00 40 1024.3
20220628161509 27 59 1.6 3.2 0.00 0.00 0.00 43 1024.0
20220628161009 27 4 1.6 3.2 0.00 0.00 0.00 44 1023.9
20220628160509 27 58 3.2 3.2 0.00 0.00 0.00 43 1024.3
20220628160008 26 43 3.2 3.2 0.00 0.00 0.00 46 1024.1
20220628155508 26 67 6.4 9.7 0.00 0.00 0.00 43 1024.4
20220628155007 26 324 6.4 8.0 0.00 0.00 0.00 44 1024.2
20220628154506 27 83 3.2 3.2 0.00 0.00 0.00 42 1024.0
20220628154005 27 358 6.4 11.3 0.00 0.00 0.00 45 1024.1
20220628153504 27 36 1.6 1.6 0.00 0.00 0.00 45 1024.0
20220628153003 26 89 1.6 3.2 0.00 0.00 0.00 44 1024.0
20220628152502 26 41 3.2 4.8 0.00 0.00 0.00 44 1024.2
20220628152001 26 89 4.8 4.8 0.00 0.00 0.00 47 1024.1
20220628151500 26 102 6.4 11.3 0.00 0.00 0.00 46 1024.2
20220628150958 27 314 3.2 3.2 0.00 0.00 0.00 48 1024.1
20220628150457 26 115 1.6 3.2 0.00 0.00 0.00 46 1023.9
20220628145956 25 357 1.6 1.6 0.00 0.00 0.00 49 1024.0
20220628145455 25 87 4.8 8.0 0.00 0.00 0.00 48 1023.9
20220628144953 25 347 3.2 3.2 0.00 0.00 0.00 52 1023.6
20220628144452 25 32 3.2 3.2 0.00 0.00 0.00 50 1023.8
20220628143952 26 43 6.4 8.0 0.00 0.00 0.00 48 1024.0
20220628143451 26 359 0.0 0.0 0.00 0.00 0.00 49 1024.1
20220628142950 25 30 1.6 1.6 0.00 0.00 0.00 50 1024.2
20220628142449 25 113 0.0 1.6 0.00 0.00 0.00 51 1023.9
20220628141948 25 28 0.0 1.6 0.00 0.00 0.00 51 1023.7
20220628141448 25 93 3.2 4.8 0.00 0.00 0.00 50 1023.9
20220628140947 24 40 1.6 3.2 0.00 0.00 0.00 53 1023.5
20220628140445 23 168 0.0 1.6 0.00 0.00 0.00 55 1023.7
20220628135943 24 83 6.4 9.7 0.00 0.00 0.00 53 1023.9
20220628135443 24 101 1.6 1.6 0.00 0.00 0.00 57 1023.6
20220628134942 25 20 0.0 0.0 0.00 0.00 0.00 59 1023.5
20220628134441 25 48 3.2 3.2 0.00 0.00 0.00 56 1023.3
20220628133940 25 93 3.2 3.2 0.00 0.00 0.00 56 1023.5
20220628133438 25 37 3.2 4.8 0.00 0.00 0.00 57 1023.3
20220628132939 24 178 1.6 3.2 0.00 0.00 0.00 57 1023.4
20220628132437 24 114 6.4 9.7 0.00 0.00 0.00 59 1023.2
20220628131936 23 33 0.0 0.0 0.00 0.00 0.00 63 1023.2
20220628131435 23 49 1.6 3.2 0.00 0.00 0.00 62 1023.2
20220628130934 23 338 0.0 1.6 0.00 0.00 0.00 64 1023.1
20220628130433 22 162 1.6 3.2 0.00 0.00 0.00 66 1022.9
20220628125932 23 53 1.6 3.2 0.00 0.00 0.00 65 1023.2
20220628125431 22 4 0.0 0.0 0.00 0.00 0.00 72 1023.1
20220628124930 22 345 1.6 3.2 0.00 0.00 0.00 71 1022.7
20220628124429 22 140 3.2 3.2 0.00 0.00 0.00 68 1022.9
20220628123929 22 346 0.0 0.0 0.00 0.00 0.00 70 1022.9
20220628123428 22 1 0.0 0.0 0.00 0.00 0.00 72 1022.7
20220628122927 22 44 1.6 1.6 0.00 0.00 0.00 72 1022.6
20220628122426 22 75 1.6 3.2 0.00 0.00 0.00 72 1022.4
20220628121925 22 140 4.8 8.0 0.00 0.00 0.00 72 1022.6
20220628121423 22 349 0.0 1.6 0.00 0.00 0.00 75 1022.6
20220628120922 22 359 4.8 11.3 0.00 0.00 0.00 72 1022.6
20220628120422 22 11 1.6 1.6 0.00 0.00 0.00 75 1022.5
20220628115921 22 147 9.7 12.9 0.00 0.00 0.00 77 1022.2
20220628115420 21 316 3.2 3.2 0.00 0.00 0.00 81 1022.2
20220628114920 21 69 3.2 3.2 0.00 0.00 0.00 77 1022.1
20220628114419 21 332 1.6 1.6 0.00 0.00 0.00 83 1022.3
20220628113918 21 343 1.6 3.2 0.00 0.00 0.00 85 1022.0
20220628113417 21 2 0.0 0.0 0.00 0.00 0.00 86 1022.2
20220628112917 21 335 0.0 0.0 0.00 0.00 0.00 88 1022.0
20220628112415 21 127 4.8 8.0 0.00 0.00 0.00 85 1022.1
20220628111913 21 324 0.0 1.6 0.00 0.00 0.00 91 1021.9
20220628111413 21 206 1.6 3.2 0.00 0.00 0.00 97 1021.7
20220628110913 21 46 0.0 1.6 0.00 0.00 0.00 99 1021.7
20220628110412 20 324 0.0 0.0 0.00 0.00 0.00 99 1021.7
20220628105912 21 278 0.0 0.0 0.00 0.00 0.00 99 1021.5
20220628105411 21 175 1.6 1.6 0.00 0.00 0.00 99 1021.5
20220628104909 21 340 0.0 1.6 0.00 0.00 0.00 99 1021.4
20220628104407 21 355 0.0 0.0 0.00 0.00 0.00 99 1021.3
20220628103905 21 341 0.0 1.6 0.00 0.00 0.00 99 1021.1
20220628103404 21 351 0.0 0.0 0.00 0.00 0.00 99 1021.5
20220628102903 21 347 0.0 0.0 0.00 0.00 0.00 99 1021.3
20220628102401 21 349 0.0 0.0 0.00 0.00 0.00 99 1021.6
20220628101900 21 335 0.0 0.0 0.00 0.00 0.00 99 1021.2
20220628101359 21 339 0.0 0.0 0.00 0.00 0.00 99 1021.2
20220628100857 21 331 0.0 0.0 0.00 0.00 0.00 99 1021.3
20220628100355 21 351 0.0 0.0 0.00 0.00 0.00 99 1021.3
20220628095854 21 327 0.0 0.0 0.00 0.00 0.00 99 1021.2
20220628095352 21 321 0.0 0.0 0.00 0.00 0.00 99 1020.8
20220628094850 21 311 0.0 0.0 0.00 0.00 0.00 99 1021.0
20220628094349 21 326 0.0 0.0 0.00 0.00 0.00 99 1020.7
20220628093848 21 333 0.0 0.0 0.00 0.00 0.00 99 1021.0
20220628093347 21 326 1.6 1.6 0.00 0.00 0.00 99 1021.0
20220628092847 21 327 1.6 1.6 0.00 0.00 0.00 99 1020.5
20220628092346 21 5 0.0 0.0 0.00 0.00 0.00 99 1020.6
20220628091844 21 321 0.0 0.0 0.00 0.00 0.00 99 1020.4
20220628091343 21 344 0.0 0.0 0.00 0.00 0.00 99 1020.5
20220628090842 21 323 0.0 1.6 0.00 0.00 0.00 99 1020.5
20220628090340 21 1 0.0 1.6 0.00 0.00 0.00 99 1020.2
20220628085840 21 289 1.6 1.6 0.00 0.00 0.00 99 1020.4
20220628085338 22 349 0.0 0.0 0.00 0.00 0.00 99 1020.0
20220628084838 22 347 0.0 0.0 0.00 0.00 0.00 99 1020.1
20220628084337 22 341 0.0 0.0 0.00 0.00 0.00 99 1020.0
20220628083837 22 23 0.0 0.0 0.00 0.00 0.00 99 1019.8
20220628083336 22 162 0.0 1.6 0.00 0.00 0.00 99 1019.7
20220628082836 22 338 0.0 0.0 0.00 0.00 0.00 99 1019.9
20220628082335 22 334 0.0 0.0 0.00 0.00 0.00 99 1019.6
20220628081833 22 339 0.0 0.0 0.00 0.00 0.00 99 1019.6
20220628081332 22 336 0.0 0.0 0.00 0.00 0.00 99 1019.7
20220628080832 22 343 0.0 0.0 0.00 0.00 0.00 99 1019.7
20220628080331 22 339 0.0 0.0 0.00 0.00 0.00 99 1019.9
20220628075831 22 338 0.0 0.0 0.00 0.00 0.00 99 1019.9
20220628075329 22 332 0.0 0.0 0.00 0.00 0.00 99 1019.7
20220628074828 22 343 0.0 0.0 0.00 0.00 0.00 99 1019.8
20220628074327 22 341 0.0 0.0 0.00 0.00 0.00 99 1019.5
20220628073827 22 326 0.0 0.0 0.00 0.00 0.00 99 1019.4
20220628073326 22 343 0.0 0.0 0.00 0.00 0.00 99 1019.6
20220628072826 22 338 0.0 0.0 0.00 0.00 0.00 99 1019.7
20220628072325 22 346 0.0 0.0 0.00 0.00 0.00 99 1019.4
20220628071824 22 353 0.0 0.0 0.00 0.00 0.00 99 1019.4
20220628071323 22 340 0.0 0.0 0.00 0.00 0.00 99 1019.5
20220628070822 22 354 0.0 0.0 0.00 0.00 0.00 99 1019.4
20220628070321 22 339 0.0 0.0 0.00 0.00 0.00 99 1019.4
20220628065820 22 345 0.0 0.0 0.00 0.00 0.00 99 1019.5
20220628065319 22 347 0.0 0.0 0.00 0.00 0.00 99 1019.3
20220628064819 22 339 0.0 0.0 0.00 0.00 0.00 99 1019.3
20220628064318 22 340 0.0 0.0 0.00 0.00 0.00 99 1019.3
20220628063817 22 313 0.0 1.6 0.00 0.00 0.00 99 1019.1
20220628063316 22 349 0.0 0.0 0.00 0.00 0.00 99 1019.2
20220628062815 22 356 0.0 0.0 0.00 0.00 0.00 99 1019.1
20220628062314 22 7 0.0 0.0 0.00 0.00 0.00 99 1019.2
20220628061813 22 351 0.0 0.0 0.00 0.00 0.00 99 1019.2
20220628061312 22 337 0.0 0.0 0.00 0.00 0.00 99 1019.3
20220628060812 22 9 0.0 0.0 0.00 0.00 0.00 99 1019.1
20220628060311 22 359 0.0 0.0 0.00 0.00 0.00 99 1019.2
20220628055810 22 342 0.0 0.0 0.00 0.00 0.00 99 1019.2
20220628055309 22 339 0.0 0.0 0.00 0.00 0.00 99 1019.1
20220628054808 22 356 0.0 0.0 0.00 0.00 0.00 99 1019.3
20220628054306 22 346 0.0 0.0 0.00 0.00 0.00 99 1019.0
20220628053805 22 326 0.0 0.0 0.00 0.00 0.00 99 1019.2
20220628053304 22 308 0.0 0.0 0.00 0.00 0.00 99 1019.4
20220628052803 22 351 0.0 0.0 0.00 0.00 0.00 99 1019.4
20220628052301 22 356 0.0 0.0 0.00 0.00 0.00 99 1019.4
20220628051801 22 356 0.0 0.0 0.00 0.00 0.00 99 1019.0
20220628051259 22 331 0.0 0.0 0.00 0.00 0.00 99 1019.2
20220628050759 22 314 0.0 0.0 0.00 0.00 0.00 99 1019.2
20220628050257 22 340 0.0 0.0 0.00 0.00 0.00 99 1019.2
20220628045756 22 1 0.0 0.0 0.00 0.00 0.00 99 1019.4
20220628045255 22 352 0.0 0.0 0.00 0.00 0.00 99 1019.0
20220628044754 22 9 0.0 0.0 0.00 0.00 0.00 99 1019.2
20220628044254 22 341 0.0 0.0 0.00 0.00 0.00 99 1019.3
20220628043753 22 331 0.0 0.0 0.00 0.00 0.00 99 1019.2
20220628043251 22 340 0.0 0.0 0.00 0.00 0.00 99 1019.2
20220628042750 22 339 0.0 0.0 0.00 0.00 0.00 99 1019.2
20220628042249 22 334 0.0 0.0 0.00 0.00 0.00 99 1019.1
20220628041749 21 346 0.0 0.0 0.00 0.00 0.00 99 1019.1
20220628041247 22 346 0.0 0.0 0.00 0.00 0.00 99 1019.2
20220628040746 22 346 0.0 0.0 0.00 0.00 0.00 99 1019.2
20220628040245 22 344 0.0 0.0 0.00 0.00 0.00 99 1018.9
20220628035744 22 348 0.0 0.0 0.00 1.19 1.19 99 1018.9